Regional Weather Roundup
Issued by NWS

Home | Current Version | Previous Version | Graphics & Text | Print | Product List | Glossary On
Versions: 1 2 3 4 5 6 7 8 9 10 11 12 13 14 15 16 17 18 19 20 21 22 23 24 25 26
000
ASUS45 KBOU 140210
RWRCO

WEATHER ROUNDUP FOR COLORADO
NATIONAL WEATHER SERVICE DENVER/BOULDER CO
700 PM MST WED DEC 13 2017

NOTE: "FAIR" INDICATES FEW OR NO CLOUDS BELOW 12000 FEET WITH NO
SIGNIFICANT WEATHER AND/OR OBSTRUCTIONS TO VISIBILITY.

COZ001>005-013-030-031-140300-
...NORTHWEST COLORADO...

CITY           SKY/WX    TMP DP  RH WIND       PRES   REMARKS
CRAIG          CLOUDY    31  25  78 VRB6      30.07R WCI  25
HAYDEN         FAIR      35  22  58 E6        30.07F WCI  30
MEEKER         CLOUDY    35  15  44 NE6       30.03S WCI  30
RABBIT EARS PA CLOUDY    25   5  42 W8G20     30.10S WCI  16
STEAMBOAT SPGS CLOUDY    34  17  49 S5        30.06F WCI  30
WALDEN         CLOUDY    32  12  43 N13G20    30.11R WCI  22
$$

COZ006>008-011-140300-
...WEST CENTRAL VALLEYS...

CITY           SKY/WX    TMP DP  RH WIND       PRES   REMARKS
GRAND JUNCTION MOCLDY    37  15  40 NE3       30.03S
MONTROSE       MOCLDY    39  12  33 CALM      30.04S
EAGLE          CLOUDY    31  18  58 CALM      30.08S
RIFLE          CLOUDY    35  15  44 E5        30.04S WCI  31
DELTA          CLOUDY    41  11  29 CALM      30.02S
NUCLA          MOCLDY    41   3  20 SE8       30.04F
$$

COZ017>023-064>068-140300-
...SOUTHWEST COLORADO...

CITY           SKY/WX    TMP DP  RH WIND       PRES   REMARKS
DURANGO        FAIR      32   5  32 N10       30.03F WCI  24
CORTEZ         FAIR      28   4  35 E8        30.04F WCI  20
PAGOSA SPRINGS FAIR      31   3  29 CALM      30.06F
TELLURIDE      MOCLDY    38   1  21 W6        30.10S
WOLF CREEK PAS CLOUDY    27  -4  26 SW10      30.20F WCI  17
$$

COZ009-010-012-014-032>034-037-058>063-140300-
...CENTRAL COLORADO...

CITY           SKY/WX    TMP DP  RH WIND       PRES   REMARKS
ASPEN          CLOUDY    35  15  44 VRB5      30.05R WCI  31
BUENA VISTA    MOCLDY    39   6  25 CALM      29.99S
COPPER MTN     NOT AVBL
BERTHOUD PASS  CLOUDY    18   7  62 NW16G22   30.11F WCI   3
COTTONWOOD PAS CLOUDY    45   7  21 CALM      30.04F
GUNNISON       FAIR      32  13  45 CALM      30.02F
KREMMLING      CLOUDY    34  27  75 CALM      30.09F
LEADVILLE      CLOUDY    33   4  29 NW17G30   30.06R WCI  22
MONARCH PASS   CLOUDY    27   5  39 SW21      30.20F WCI  13
SALIDA         CLOUDY    41   5  22 SE16      30.06F
SUNLIGHT       CLOUDY    30   9  40 SW7       30.14S WCI  23
WILKERSON PASS CLOUDY    30   0  27 NW5       30.10F WCI  25
$$

COZ069>075-140300-
...SAN LUIS VALLEY/SANGRE DE CRISTO MOUNTAINS...

CITY           SKY/WX    TMP DP  RH WIND       PRES   REMARKS
ALAMOSA        CLOUDY    33   4  29 S6        30.01F WCI  28
DEL NORTE      CLOUDY    34   4  28 W3        30.03S
LA VETA PASS   CLOUDY    34   3  27 SW7         N/A  WCI  28
SAGUACHE       CLOUDY    34   7  32 CALM      30.03F
$$

COZ035-036-038>040-140300-
...NORTHERN COLORADO FRONT RANGE...

CITY           SKY/WX    TMP DP  RH WIND       PRES   REMARKS
DENVER INTL AP CLOUDY    39  12  33 NE7       30.06R
DMNS CITY PARK NOT AVBL
AURORA         CLOUDY    39  12  32 E8        30.07R
FRONT RANGE AP MOCLDY    41  12  30 NE6       30.07R
ERIE MUNI ARPT CLOUDY    44  10  25 E6        30.11R
BOULDER MUN AP CLOUDY    45  14  29 CALM      30.06R
CENTENNIAL     CLOUDY    42  12  29 E7        30.06R
BROOMFIELD     MOCLDY    45  12  26 E8        30.06R
FORT COLLINS   CLOUDY    44  14  29 NE8       30.07R
LONGMONT       CLOUDY    45  14  28 E7        30.08R
$$

COZ041-046-047-076>085-087-088-140300-
...PIKES PEAK/PALMER DIVIDE AND SOUTHERN FOOTHILLS...

CITY           SKY/WX    TMP DP  RH WIND       PRES   REMARKS
COLO. SPRINGS  CLOUDY    33   7  33 N6        30.07R WCI  28
A. F. ACADEMY  CLOUDY    30   5  34 N5        30.04S WCI  25
SCHRIEVER AFB  FAIR      35   6  29 NE3       30.06R
CHEYENNE MTN   CLOUDY    39   6  24 S10       30.00R
ELLICOTT         N/A    N/A N/A N/A E8        30.05R
FALCON         CLOUDY    32   6  33 N5        30.07R WCI  28
FORT CARSON    CLOUDY    41   7  24 W6        30.03S
LIMON          CLOUDY    32  11  41 N6        30.06R WCI  26
MONUMENT HILL  CLOUDY    32  10  40 SE6       30.07S WCI  26
CANON CITY     CLOUDY    36  10  35 CALM      30.03R
WALSENBURG     CLOUDY    41  12  30 E3        30.03S
TRINIDAD       CLOUDY    40  11  30 SE3       30.04R
$$

COZ042>045-048>051-090-091-140300-
...NORTHEAST COLORADO...

CITY           SKY/WX    TMP DP  RH WIND       PRES   REMARKS
GREELEY ARPT   CLOUDY    41  14  33 NE6       30.08R
AKRON          CLOUDY    41  13  31 N12       30.04R
BURLINGTON     MOCLDY    37  14  38 NW5       30.05R
WRAY           CLOUDY    41  14  33 CALM      30.05R
YUMA           CLOUDY    41  14  33 N7        30.04R
STERLING       CLOUDY    45  18  33 N8        30.03R
HOLYOKE        FAIR      41  18  38 N13       30.03S
FORT MORGAN    CLOUDY    42  12  29 N6        30.06R
$$

COZ086-089-092>099-140300-
...SOUTHEAST COLORADO...

CITY           SKY/WX    TMP DP  RH WIND       PRES   REMARKS
PUEBLO         MOCLDY    35   8  32 CALM      30.02R
LA JUNTA       FAIR      44  13  28 E7        30.02R
LAMAR          FAIR      40  12  32 VRB3      30.01R
SPRINGFIELD      N/A     39  15  37 NW5       30.03R
$$




USA.gov is the U.S. government's official web portal to all federal, state and local government web resources and services.